Location: *
(2.5500°S, 65.9667°W)
Time: 03:36:44
(UTC+00:00)

Courier 1B Rocket - Visible Passes

Search period start: 22 April 2024 00:00
Search period end: 02 May 2024 00:00
Orbit: 920 x 1201 km, 28.2° (Epoch: 21 April)

Date Brightness Start Highest point End Pass type
(mag) Time Alt. Az. Time Alt. Az. Time Alt. Az.
23 Apr 7.0 00:13:39 10° SSW 00:16:04 16° S 00:16:04 16° S visible
23 Apr 7.0 23:13:55 10° S 23:16:32 12° SSE 23:18:54 10° SE visible
24 Apr 7.4 01:04:30 10° SW 01:05:17 13° SSW 01:05:17 13° SSW visible
25 Apr 6.5 00:03:59 10° SSW 00:08:11 23° S 00:08:11 23° S visible
25 Apr 6.7 23:03:48 10° SSW 23:08:01 17° SSE 23:11:11 13° SE visible
26 Apr 6.9 00:55:14 10° SW 00:57:34 22° SW 00:57:34 22° SW visible
26 Apr 5.8 23:54:32 10° SW 00:00:40 35° SSE 00:00:40 35° SSE visible
27 Apr 6.3 22:54:07 10° SSW 22:59:22 24° SSE 23:03:52 13° ESE visible
28 Apr 6.1 00:46:11 10° SW 00:50:16 39° SW 00:50:16 39° SW visible
28 Apr 5.3 23:45:18 10° SW 23:51:53 53° SSE 23:53:35 43° ESE visible
29 Apr 7.5 01:38:49 10° WSW 01:40:01 16° W 01:40:01 16° W visible
29 Apr 5.8 22:44:40 10° SW 22:50:35 35° SSE 22:56:52 10° E visible
30 Apr 5.4 00:37:24 10° WSW 00:43:26 64° WNW 00:43:26 64° WNW visible
30 Apr 5.0 23:36:17 10° WSW 23:42:57 80° SSE 23:46:59 28° ENE visible
01 May 7.2 01:30:41 10° W 01:33:25 21° WNW 01:33:25 21° WNW visible
01 May 7.7 09:16:10 10° N 09:20:02 14° NNE 09:23:48 10° NE visible
01 May 5.3 22:35:26 10° SW 22:41:44 52° SSE 22:48:28 10° ENE visible
